Chippewa, MI

10:31 AM EDT on October 20, 2019 (GMT -0400)
Chippewa County International

Weather History for KCIU - August, 2019

Change the Weather History Date:

Saturday, August 24, 2019

  Actual Average Record
Temperature  
Mean Temperature 60 °F -  
Max Temperature 73 °F 73 °F 87 °F (1980)
Min Temperature 48 °F 51 °F 35 °F (1984)
Degree Days  
Heating Degree Days 4    
Growing Degree Days 10 (Base 50)    
Moisture  
Dew Point 48 °F    
Average Humidity 68    
Maximum Humidity 96    
Minimum Humidity 41    
Precipitation  
Precipitation 0.00 in - - ()
Sea Level Pressure  
Sea Level Pressure 30.34 in    
Wind  
Wind Speed 3 mph ()    
Max Wind Speed 9 mph    
Max Gust Speed -    
Visibility 9.7 miles    
Events      
Averages and records for this station are not official NWS values.
T = Trace of Precipitation, MM = Missing Value Source: Averaged Metar Reports

Daily Weather History Graph

Daily Weather History Graph

Search for Another Location

Airport or City:

Astronomy

Aug. 24, 2019 Rise Set
Actual Time 6:47 AM EDT 8:31 PM EDT
Civil Twilight 6:16 AM EDT 9:03 PM EDT
Nautical Twilight 5:37 AM EDT 9:42 PM EDT
Astronomical Twilight 4:54 AM EDT 10:24 PM EDT
Moon 12:33 AM EDT (8/24) 3:55 PM EDT (8/24)
Length of Visible Light 14h 47m
Length of Day
13h 43m
Last Quarter, 39% of the Moon is Illuminated
Aug 24
Last Quarter
Aug 30
New
Sep 5
First Quarter
Sep 14
Full
Sep 21
Last Quarter

Hourly Weather History & Observations

Time (EDT) Temp. Dew Point Humidity Pressure Visibility Wind Dir Wind Speed Gust Speed Precip Events Conditions
12:56 AM 52.0 °F 48.9 °F 89% 30.32 in 10.0 mi NE 3.5 mph - N/A   Clear
1:56 AM 52.0 °F 50.0 °F 93% 30.32 in 10.0 mi Calm Calm - N/A   Clear
2:56 AM 51.1 °F 50.0 °F 96% 30.32 in 10.0 mi Calm Calm - N/A   Clear
3:39 AM 48.2 °F 46.4 °F 93% 30.33 in 8.0 mi Calm Calm - N/A   Clear
3:56 AM 48.9 °F 46.9 °F 93% 30.33 in 10.0 mi Calm Calm - N/A   Clear
4:56 AM 48.9 °F 46.9 °F 93% 30.34 in 10.0 mi Calm Calm - N/A   Clear
5:56 AM 50.0 °F 48.0 °F 93% 30.35 in 10.0 mi Calm Calm - N/A   Clear
6:56 AM 48.0 °F 46.0 °F 93% 30.37 in 10.0 mi ENE 3.5 mph - N/A   Clear
7:56 AM 53.1 °F 50.0 °F 89% 30.39 in 10.0 mi Calm Calm - N/A   Clear
8:56 AM 59.0 °F 52.0 °F 78% 30.38 in 10.0 mi East 4.6 mph - N/A   Clear
9:56 AM 64.9 °F 48.9 °F 56% 30.39 in 10.0 mi SE 5.8 mph - N/A   Clear
10:56 AM 68.0 °F 48.9 °F 50% 30.38 in 10.0 mi Variable 5.8 mph - N/A   Clear
11:56 AM 68.0 °F 46.9 °F 47% 30.36 in 10.0 mi SE 8.1 mph - N/A   Clear
12:56 PM 69.1 °F 48.0 °F 47% 30.36 in 10.0 mi Calm Calm - N/A   Clear
1:56 PM 70.0 °F 48.9 °F 47% 30.35 in 10.0 mi Variable 3.5 mph - N/A   Scattered Clouds
2:56 PM 73.0 °F 50.0 °F 44% 30.33 in 10.0 mi Variable 6.9 mph - N/A   Partly Cloudy
3:56 PM 73.0 °F 48.9 °F 42% 30.32 in 10.0 mi Variable 3.5 mph - N/A   Clear
4:56 PM 73.0 °F 48.0 °F 41% 30.31 in 10.0 mi Variable 5.8 mph - N/A   Clear
5:56 PM 72.0 °F 46.9 °F 41% 30.30 in 10.0 mi SSE 6.9 mph - N/A   Clear
6:56 PM 71.1 °F 48.0 °F 44% 30.30 in 10.0 mi SSE 9.2 mph - N/A   Clear
7:56 PM 68.0 °F 45.0 °F 43% 30.30 in 10.0 mi Calm Calm - N/A   Clear
8:56 PM 62.1 °F 46.0 °F 56% 30.31 in 10.0 mi South 5.8 mph - N/A   Clear
9:56 PM 57.0 °F 48.0 °F 72% 30.32 in 10.0 mi SSE 5.8 mph - N/A   Clear
10:56 PM 57.0 °F 50.0 °F 77% 30.30 in 4.0 mi South 5.8 mph - N/A   Haze
11:56 PM 55.9 °F 51.1 °F 84% 30.30 in 10.0 mi SSE 3.5 mph - N/A   Clear